Aberdeen, United Kingdom

4:40 PM BST on May 21, 2018 (GMT +0100)
Dyce

Weather History for EGPD - June, 2013

Change the Weather History Date:

Friday, June 7, 2013

  Actual Average Record
Temperature  
Mean Temperature 54 °F -  
Max Temperature 61 °F 62 °F 68 °F (2003)
Min Temperature 46 °F 47 °F 33 °F (2005)
Degree Days  
Heating Degree Days 12    
Growing Degree Days 4 (Base 50)    
Moisture  
Dew Point 46 °F    
Average Humidity 77    
Maximum Humidity 93    
Minimum Humidity 54    
Precipitation  
Precipitation 0.00 in 0.07 in - ()
Sea Level Pressure  
Sea Level Pressure 30.33 in    
Wind  
Wind Speed 5 mph ()    
Max Wind Speed 12 mph    
Max Gust Speed -    
Visibility 8.2 miles    
Events      
Averages and records for this station are not official NWS values.
T = Trace of Precipitation, MM = Missing Value Source: Averaged Metar Reports

Daily Weather History Graph

Daily Weather History Graph

Search for Another Location

Airport or City:

Astronomy

Jun. 07, 2013 Rise Set
Actual Time 4:16 AM BST 9:59 PM BST
Civil Twilight 3:10 AM BST 11:06 PM BST
Nautical Twilight 1:40 AM BST 12:35 AM BST
Astronomical Twilight Sun does not set Sun does not set
Moon 3:49 AM BST (6/7) 8:44 PM BST (6/7)
Length of Visible Light 19h 55m
Length of Day
17h 43m
Waning Crescent, 1% of the Moon is Illuminated
Jun 7
Waning Crescent
Jun 8
New
Jun 16
First Quarter
Jun 23
Full
Jun 30
Last Quarter

Hourly Weather History & Observations

Time (BST) Temp. Windchill Dew Point Humidity Pressure Visibility Wind Dir Wind Speed Gust Speed Precip Events Conditions
12:20 AM 48.2 °F - 44.6 °F 87% 30.30 in 6.2 mi SSE 3.5 mph - N/A   Scattered Clouds
12:50 AM 50 °F - 44 °F 73% 30.31 in 19 mi SSW 4.6 mph - -   Partly Cloudy
12:50 AM 46.4 °F - 42.8 °F 87% 30.30 in 6.2 mi Variable 2.3 mph - N/A   Partly Cloudy
1:20 AM 50.0 °F - 44.6 °F 82% 30.30 in - West 3.5 mph - N/A   Haze
1:50 AM 50.0 °F - 44.6 °F 82% 30.30 in 6.2 mi North 4.6 mph - N/A   Scattered Clouds
2:20 AM 48.2 °F - 44.6 °F 87% 30.30 in 6.2 mi North 5.8 mph - N/A   Unknown
2:50 AM 48.2 °F - 44.6 °F 87% 30.30 in - North 4.6 mph - N/A   Clear
3:20 AM 48.2 °F - 44.6 °F 87% 30.30 in 6.2 mi NNW 4.6 mph - N/A   Mostly Cloudy
3:50 AM 49 °F - 46 °F 83% 30.32 in 9 mi NW 6.9 mph - -   Partly Cloudy
3:50 AM 48.2 °F - 46.4 °F 93% 30.30 in 6.2 mi NW 6.9 mph - N/A   Scattered Clouds
4:20 AM 48.2 °F - 44.6 °F 87% 30.30 in 6.2 mi NNW 6.9 mph - N/A   Mostly Cloudy
4:50 AM 48.2 °F - 46.4 °F 93% 30.30 in 6.2 mi NNW 5.8 mph - N/A   Scattered Clouds
5:20 AM 48.2 °F - 46.4 °F 93% 30.33 in 6.2 mi NNW 6.9 mph - N/A   Scattered Clouds
5:50 AM 50.0 °F - 46.4 °F 87% 30.33 in 6.2 mi North 5.8 mph - N/A   Mostly Cloudy
6:20 AM 50.0 °F - 46.4 °F 87% 30.33 in 6.2 mi NNW 5.8 mph - N/A   Mostly Cloudy
6:50 AM 51 °F - 47 °F 80% 30.35 in 18 mi NNW 5.8 mph - -  
6:50 AM 50.0 °F - 46.4 °F 87% 30.33 in 6.2 mi North 6.9 mph - N/A   Mostly Cloudy
7:20 AM 51.8 °F - 46.4 °F 82% 30.33 in 6.2 mi North 5.8 mph - N/A   Mostly Cloudy
7:50 AM 51.8 °F - 46.4 °F 82% 30.33 in 6.2 mi North 5.8 mph - N/A   Mostly Cloudy
8:20 AM 51.8 °F - 46.4 °F 82% 30.33 in 6.2 mi NNE 5.8 mph - N/A   Mostly Cloudy
8:50 AM 51.8 °F - 46.4 °F 82% 30.36 in 6.2 mi North 5.8 mph - N/A   Mostly Cloudy
9:20 AM 53.6 °F - 46.4 °F 77% 30.36 in 6.2 mi Variable 2.3 mph - N/A   Mostly Cloudy
9:50 AM 53 °F - 46 °F 71% 30.36 in 19 mi North 4.6 mph - -   Mostly Cloudy
9:50 AM 53.6 °F - 46.4 °F 77% 30.36 in 6.2 mi North 5.8 mph - N/A   Mostly Cloudy
10:20 AM 53.6 °F - 46.4 °F 77% 30.36 in 6.2 mi NNW 4.6 mph - N/A   Mostly Cloudy
10:50 AM 53.6 °F - 46.4 °F 77% 30.36 in 6.2 mi NNW 5.8 mph - N/A   Mostly Cloudy
11:20 AM 55.4 °F - 46.4 °F 72% 30.36 in 6.2 mi North 6.9 mph - N/A   Mostly Cloudy
11:50 AM 55.4 °F - 46.4 °F 72% 30.36 in 6.2 mi Variable 3.5 mph - N/A   Mostly Cloudy
12:20 PM 55.4 °F - 46.4 °F 72% 30.36 in 6.2 mi North 5.8 mph - N/A   Mostly Cloudy
12:50 PM 57 °F - 48 °F 63% 30.37 in 19 mi ESE 6.9 mph - -   Overcast
12:50 PM 57.2 °F - 48.2 °F 72% 30.36 in 6.2 mi East 6.9 mph - N/A   Mostly Cloudy
1:20 PM 57.2 °F - 48.2 °F 72% 30.36 in 6.2 mi SSE 6.9 mph - N/A   Scattered Clouds
1:50 PM 59.0 °F - 48.2 °F 67% 30.36 in 6.2 mi Variable 4.6 mph - N/A   Scattered Clouds
2:20 PM 60.8 °F - 48.2 °F 63% 30.36 in 6.2 mi Variable 3.5 mph - N/A   Scattered Clouds
2:50 PM 59.0 °F - 48.2 °F 67% 30.33 in 6.2 mi ESE 9.2 mph - N/A   Scattered Clouds
3:20 PM 60.8 °F - 48.2 °F 63% 30.33 in 6.2 mi ESE 8.1 mph - N/A   Scattered Clouds
3:50 PM 61 °F - 49 °F 54% 30.34 in 17 mi ESE 8.1 mph - -  
3:50 PM 60.8 °F - 48.2 °F 63% 30.33 in 6.2 mi ESE 6.9 mph - N/A   Scattered Clouds
4:20 PM 62.6 °F - 50.0 °F 63% 30.33 in 6.2 mi ESE 6.9 mph - N/A   Partly Cloudy
4:50 PM 60.8 °F - 48.2 °F 63% 30.33 in 6.2 mi East 9.2 mph - N/A   Partly Cloudy
5:20 PM 59.0 °F - 48.2 °F 67% 30.33 in 6.2 mi East 11.5 mph - N/A   Partly Cloudy
5:50 PM 55.4 °F - 46.4 °F 72% 30.33 in 6.2 mi East 11.5 mph - N/A   Partly Cloudy
6:20 PM 55.4 °F - 46.4 °F 72% 30.33 in 6.2 mi East 8.1 mph - N/A   Partly Cloudy
6:50 PM 55 °F - 47 °F 65% 30.35 in 19 mi ESE 8.1 mph - -  
6:50 PM 55.4 °F - 46.4 °F 72% 30.33 in - East 9.2 mph - N/A   Clear
7:20 PM 55.4 °F - 46.4 °F 72% 30.33 in - ESE 6.9 mph - N/A   Clear
7:50 PM 55.4 °F - 46.4 °F 72% 30.33 in - SE 6.9 mph - N/A   Clear
8:20 PM 55.4 °F - 46.4 °F 72% 30.33 in - SSE 5.8 mph - N/A   Clear
8:50 PM 55.4 °F - 46.4 °F 72% 30.33 in - South 4.6 mph - N/A   Clear
9:20 PM 53.6 °F - 46.4 °F 77% 30.33 in - South 5.8 mph - N/A   Clear
9:50 PM 52 °F - 46 °F 74% 30.35 in 19 mi SW 3.5 mph - -  
9:50 PM 50.0 °F - 44.6 °F 82% 30.33 in - SW 4.6 mph - N/A   Clear
10:20 PM 50.0 °F - 44.6 °F 82% 30.33 in - SE 2.3 mph - N/A   Clear
10:50 PM 48.2 °F - 42.8 °F 82% 30.33 in - WSW 3.5 mph - N/A   Clear
11:20 PM 46.4 °F 45.2 °F 42.8 °F 87% 30.36 in 6.2 mi WSW 3.5 mph - N/A   Unknown
11:50 PM 46.4 °F - 42.8 °F 87% 30.33 in - WNW 2.3 mph - N/A   Clear